Quesnel,

11:35 PM PDT on August 16, 2017 (GMT -0700)
Quesnel

Weather History for CYQZ - November, 2012

Change the Weather History Date:

Tuesday, November 20, 2012

  Actual Average Record
Temperature  
Mean Temperature 22 °F -  
Max Temperature 26 °F 29 °F 59 °F (2002)
Min Temperature 17 °F 17 °F -11 °F (2010)
Degree Days  
Heating Degree Days 44    
Moisture  
Dew Point 15 °F    
Average Humidity 81    
Maximum Humidity 86    
Minimum Humidity 74    
Precipitation  
Precipitation 0.00 in - - ()
Sea Level Pressure  
Sea Level Pressure 29.67 in    
Wind  
Wind Speed 8 mph ()    
Max Wind Speed 16 mph    
Max Gust Speed 21 mph    
Visibility 8.4 miles    
Events Snow    
Averages and records for this station are not official NWS values.
T = Trace of Precipitation, MM = Missing Value Source: Averaged Metar Reports

Daily Weather History Graph

Daily Weather History Graph

Search for Another Location

Airport or City:

Trip Planner

Search our weather history database for the weather conditions in past years. The results will help you decide how hot, cold, wet, or windy it might be!

Date:

Astronomy

Nov. 20, 2012 Rise Set
Actual Time 7:43 AM PST 4:07 PM PST
Civil Twilight 7:04 AM PST 4:46 PM PST
Nautical Twilight 6:21 AM PST 5:29 PM PST
Astronomical Twilight 5:40 AM PST 6:10 PM PST
Moon 12:50 PM PST (11/20) No Moon Set
Length of Visible Light 9h 42m
Length of Day
8h 23m
First Quarter, 52% of the Moon is Illuminated
Nov 20
First Quarter
Nov 28
Full
Dec 6
Last Quarter
Dec 13
New
Dec 19
First Quarter

Hourly Weather History & Observations

Time (PST) Temp. Windchill Dew Point Humidity Pressure Visibility Wind Dir Wind Speed Gust Speed Precip Events Conditions
12:00 AM 26.6 °F 18.2 °F 21.2 °F 80% 29.59 in 9.0 mi North 8.1 mph - N/A   Overcast
1:00 AM 24.8 °F 16.1 °F 19.4 °F 80% 29.63 in 9.0 mi North 8.1 mph - N/A   Overcast
2:00 AM 24.8 °F 17.9 °F 21.2 °F 86% 29.68 in 9.0 mi North 5.8 mph - N/A   Overcast
3:00 AM 24.8 °F 17.9 °F 19.4 °F 80% 29.71 in 9.0 mi NNE 5.8 mph - N/A   Overcast
4:00 AM 23.0 °F 14.7 °F 17.6 °F 80% 29.74 in 9.0 mi NNE 6.9 mph - N/A   Overcast
5:00 AM 23.0 °F 15.8 °F 17.6 °F 80% 29.75 in 9.0 mi North 5.8 mph - N/A   Overcast
6:00 AM 21.2 °F 10.1 °F 15.8 °F 80% 29.76 in 9.0 mi NNE 10.4 mph - N/A   Overcast
7:00 AM 21.2 °F 10.9 °F 15.8 °F 80% 29.77 in 9.0 mi North 9.2 mph - N/A   Overcast
8:00 AM 21.2 °F 12.6 °F 15.8 °F 80% 29.78 in 9.0 mi North 6.9 mph - N/A   Overcast
9:00 AM 21.2 °F 11.7 °F 15.8 °F 80% 29.80 in 9.0 mi North 8.1 mph - N/A   Overcast
10:00 AM 19.4 °F 9.5 °F 15.8 °F 86% 29.79 in 9.0 mi North 8.1 mph - N/A   Overcast
11:00 AM 19.4 °F 7.2 °F 15.8 °F 86% 29.77 in 9.0 mi NNW 11.5 mph - N/A   Overcast
12:00 PM 21.2 °F 8.3 °F 15.8 °F 80% 29.75 in 9.0 mi NW 13.8 mph - N/A   Overcast
1:00 PM 19.4 °F 7.9 °F 15.8 °F 86% 29.72 in 9.0 mi NNW 10.4 mph - N/A   Overcast
2:00 PM 19.4 °F 6.6 °F 14.0 °F 80% 29.70 in 9.0 mi NNW 12.7 mph - N/A   Overcast
3:00 PM 19.4 °F 7.9 °F 14.0 °F 80% 29.68 in 9.0 mi NNW 10.4 mph - N/A   Overcast
4:00 PM 19.4 °F 7.2 °F 15.8 °F 86% 29.64 in 9.0 mi NNW 11.5 mph - N/A   Overcast
5:00 PM 19.4 °F 7.9 °F 14.0 °F 80% 29.63 in 9.0 mi NNW 10.4 mph - N/A   Overcast
5:30 PM 19.4 °F 5.5 °F 14.0 °F 80% 29.62 in 7.0 mi NNW 15.0 mph - N/A Snow Light Snow
5:31 PM 19.4 °F 5.0 °F 14.0 °F 80% 29.62 in 5.0 mi NNW 16.1 mph - N/A Snow Light Snow
5:36 PM 19.4 °F 6.6 °F 14.0 °F 80% 29.62 in 2.5 mi NNW 12.7 mph 19.6 mph N/A Snow Light Snow
5:47 PM 17.6 °F 3.2 °F 14.0 °F 86% 29.61 in 3.0 mi NNW 15.0 mph - N/A Snow Light Snow
5:55 PM 17.6 °F 5.0 °F 14.0 °F 86% 29.61 in 7.0 mi NNW 11.5 mph 20.7 mph N/A Snow Light Snow
6:00 PM 17.6 °F 5.7 °F 14.0 °F 86% 29.61 in 9.0 mi NNW 10.4 mph 17.3 mph N/A Snow Light Snow
6:09 PM 17.6 °F 4.3 °F 14.0 °F 86% 29.62 in 9.0 mi NW 12.7 mph - N/A   Overcast
7:00 PM 17.6 °F 5.0 °F 14.0 °F 86% 29.60 in 9.0 mi NW 11.5 mph - N/A   Overcast
8:00 PM 19.4 °F 8.6 °F 12.2 °F 74% 29.62 in 9.0 mi NNW 9.2 mph - N/A   Overcast
8:19 PM 19.4 °F 7.9 °F 12.2 °F 74% 29.62 in 9.0 mi North 10.4 mph - N/A   Overcast
8:22 PM 19.4 °F 8.6 °F 12.2 °F 74% 29.62 in 9.0 mi North 9.2 mph - N/A   Overcast
9:00 PM 19.4 °F 10.4 °F 12.2 °F 74% 29.63 in 9.0 mi NNW 6.9 mph - N/A   Overcast
10:00 PM 17.6 °F 9.3 °F 12.2 °F 79% 29.63 in 9.0 mi North 5.8 mph - N/A   Mostly Cloudy
10:23 PM 17.6 °F 10.7 °F 14.0 °F 86% 29.64 in 9.0 mi NNW 4.6 mph - N/A   Overcast
11:00 PM 17.6 °F 9.3 °F 12.2 °F 79% 29.65 in 9.0 mi NNW 5.8 mph - N/A   Overcast
11:09 PM 17.6 °F 10.7 °F 14.0 °F 86% 29.66 in 9.0 mi NW 4.6 mph - N/A   Mostly Cloudy
11:40 PM 17.6 °F - 14.0 °F 86% 29.67 in 9.0 mi Variable 2.3 mph - N/A   Overcast